Location: *
(18.5200°S, 46.4500°E)
Time: 07:49:04
(UTC+00:00)

GPS 2-14 Rocket1 - Pass Details

Date: 19 July 2019
Orbit: 477 x 544 km, 20.7° (Epoch: 20 August)

Event Time Altitude Azimuth Distance (km) Brightness Sun altitude
Rises 16:03:47 0° 261° (W) 2,654 7.4 -20.8°
Reaches altitude 10° 16:06:05 10° 263° (W) 1,753 6.3 -21.3°
Maximum altitude 16:10:08 69° 347° (NNW) 549 2.8 -22.2°
Enters shadow 16:10:24 66° 17° (NNE) 558 2.7 -22.3°
